Flag for Germany Weather past 2 weeks in Lübbecke, North Rhine-Westphalia, Germany

Now
54 °F

Partly cloudy.


Feels Like: 53 °F
Forecast: 49 / 60 °F
Wind: 3 mph from South

Location: Bueckeburg

Current Time: Sep 3, 2015 at 6:43:15 AM

Latest Report: Sep 3, 2015 at 5:20 AM


Visibility: N/A

Pressure: 29.95 "Hg

Humidity: 94%

Dew point: 52 °F

Location of LübbeckeLocation

Historic Weather in Lübbecke — Graph

°F

Lübbecke temperature yesterday

Maximum temperature yesterday: 66 °F (at 3:20 PM)
Minimum temperature yesterday: 54 °F (at 2:20 AM)
Average temperature yesterday: 59 °F

Past Weeks' High & Low Weather Summary

 TemperatureHumidityPressure
High91 °F (Aug 31, 4:20 PM)100% (Aug 27, 7:20 PM)30.27 "Hg (Aug 27, 7:20 PM)
Low52 °F (Aug 29, 6:20 AM)30% (Aug 31, 4:20 PM)29.56 "Hg (Aug 24, 6:20 PM)
Average66 °F71%29.98 "Hg
* Reported Aug 19 4:20 AM — Sep 3 4:20 AM, Lübbecke, Weather by CustomWeather, © 2015

Note: Actual official high and low records may vary slightly from our data, if they occured in-between our weather recording intervals... More about our weather records

Advertising

Lübbecke weather history for previous 24 hours

 ConditionsComfort  
Time TempWeatherWind HumidityBarometerVisibility
4:20 AM
Thu, Sep 3
52 °FPartly cloudy.5 mph100%29.95 "HgN/A
3:20 AM54 °FPassing clouds.3 mph94%29.98 "HgN/A
2:20 AM54 °FPassing clouds.3 mph94%29.98 "HgN/A
1:20 AM54 °FPassing clouds.3 mph94%29.98 "HgN/A
12:20 AM55 °FPartly cloudy.5 mph88%29.98 "HgN/A
11:20 PM
Wed, Sep 2
55 °FPassing clouds.1 mph88%29.98 "HgN/A
10:20 PM57 °FPassing clouds.2 mph82%29.98 "HgN/A
9:20 PM57 °FPassing clouds.5 mph77%29.98 "HgN/A
8:20 PM59 °FPartly sunny.6 mph72%29.98 "HgN/A
7:20 PM63 °FPartly sunny.7 mph59%29.98 "HgN/A
6:20 PM63 °FPartly sunny.8 mph59%29.98 "HgN/A
5:20 PM64 °FScattered clouds.8 mph56%29.98 "HgN/A
4:20 PM66 °FScattered clouds.9 mph49%29.98 "HgN/A
3:20 PM66 °FScattered clouds.8 mph49%29.98 "HgN/A
2:20 PM64 °FScattered clouds.12 mph52%29.98 "HgN/A
1:20 PM64 °FScattered clouds.13 mph52%30.01 "HgN/A
12:20 PM63 °FScattered clouds.13 mph59%30.01 "HgN/A
11:20 AM61 °FPassing clouds.12 mph68%30.01 "HgN/A
10:20 AM59 °FPassing clouds.9 mph72%30.01 "HgN/A
9:20 AM57 °FPassing clouds.9 mph82%30.01 "HgN/A
8:20 AM55 °FPassing clouds.7 mph82%30.01 "HgN/A
7:20 AM54 °FPassing clouds.8 mph88%30.01 "HgN/A
6:20 AM54 °FPassing clouds.9 mph88%29.98 "HgN/A
Weather by CustomWeather, © 2015

See weather overviewHow to use our weather pages